Regional Weather Roundup
Issued by NWS

Home | Current Version | Previous Version | Graphics & Text | Print | Product List | Glossary On
Versions: 1 2 3 4 5 6 7 8 9 10 11 12 13 14 15 16 17 18 19 20 21 22 23 24 25 26 27 28 29 30 31 32 33 34 35 36 37 38 39 40 41 42 43 44 45 46 47 48 49 50
000
ASUS44 KMEG 242210
RWRTN
TENNESSEE HOURLY STATE WEATHER ROUNDUP
NATIONAL WEATHER SERVICE MEMPHIS TN
500 PM CDT TUE APR 24 2018

TNZ002-004-019-021-049-052-054-088>092-242300-
WEST TENNESSEE

CITY           SKY/WX    TMP DP  RH WIND       PRES   REMARKS
MEMPHIS INTL   PTSUNNY   65  56  72 NW8       29.98S
NWS MEMPHIS      N/A     62 N/A N/A MISG        N/A
JACKSON        CLOUDY    62  57  83 NW15      29.97R
DYERSBURG      CLOUDY    62  57  83 NW8       29.98S
SOMERVILLE     PTSUNNY   64  57  77 N5G15     29.97R
COVINGTON      CLOUDY    63  59  88 N9        29.98S
UNION CITY     CLOUDY    61  57  88 NW8G16    29.96S
BOLIVAR        PTSUNNY   63  59  88 NW6       29.97R
PARIS          PTSUNNY   61  59  94 N6        29.94R FOG
HUNTINGDON     CLOUDY    63  61  94 W5        29.93S
LEXINGTON      PTSUNNY   64  55  72 NW9       29.93R
SELMER         CLOUDY    63  55  77 NW7G16    29.94S
SAVANNAH       CLOUDY    66  55  68 VRB7      29.93S
$$

TNZ008-025-027-028-033-062-065-066-242300-
NORTH MIDDLE TENNESSEE

CITY           SKY/WX    TMP DP  RH WIND       PRES   REMARKS
NASHVILLE      PTSUNNY   63  56  78 NW12      29.90R
PORTLAND       PTSUNNY   61  55  82 NW13      29.89S
CLARKSVILLE    CLOUDY    61  52  72 N14       29.92R
SMYRNA         CLOUDY    64  57  78 NW12      29.90S
COOKEVILLE     PTSUNNY   63  57  82 VRB3      29.87S
LIVINGSTON     PTCLDY    57  55  94 NW8       29.87R FOG
GALLATIN       PTSUNNY   61  57  88 NW7G14    29.92R
CROSSVILLE     CLOUDY    57  53  86 NW12      29.88R
ROCKWOOD       MOCLDY    57  55  94 NW7G13    29.86R
$$

TNZ061-075-076-078-094-096-097-242300-
SOUTH MIDDLE TENNESSEE

CITY           SKY/WX    TMP DP  RH WIND       PRES   REMARKS
LEWISBURG      MOCLDY    63  57  82 N6        29.90R
FAYETTEVILLE   MOSUNNY   66  54  63 VRB5      29.88S
TULLAHOMA      CLOUDY    64  54  68 W17       29.88S
WINCHESTER     MOSUNNY   64  52  63 NW6       29.88S
MCMINNVILLE    MOSUNNY   61  57  88 W5        29.88S
COLUMBIA       CLOUDY    63  63 100 VRB5      29.90S
SHELBYVILLE    PTSUNNY   64  55  72 NW8       29.89S
$$

TNZ017-018-042-046-047-242300-
NORTHEAST TENNESSEE

CITY           SKY/WX    TMP DP  RH WIND       PRES   REMARKS
TRI CITIES     CLOUDY    58  57  97 N3        29.84R
ELIZABETHTON   PTSUNNY   59  57  94 CALM      29.83S
$$

TNZ012-013-036-069-073-074-242300-
CENTRAL EAST TENNESSEE

CITY           SKY/WX    TMP DP  RH WIND       PRES   REMARKS
KNOXVILLE      CLOUDY    62  57  83 W7        29.83R
OAK RIDGE      PTSUNNY   64  59  83 VRB3      29.85R
DOWNTOWN KNOXV PTSUNNY   61  59  94 CALM      29.84R
GATLINBURG     PTSUNNY   64  57  77 SE5       29.82S
MORRISTOWN     PTSUNNY   61  59  94 E6        29.83S
JACKSBORO      PTSUNNY   63  57  82 CALM      29.87S
$$

TNZ083-085-099-242300-
SOUTHEAST TENNESSEE

CITY           SKY/WX    TMP DP  RH WIND       PRES   REMARKS
CHATTANOOGA    PTSUNNY   69  48  47 W14G20    29.85S
DAYTON         CLOUDY    64  57  77 NW8G14    29.85R
$$

SKY/WX REPORTED AS FAIR MEANS FEW OR NO CLOUDS BELOW
12 THOUSAND FEET.




USA.gov is the U.S. government's official web portal to all federal, state and local government web resources and services.